Hourly Weather Abraimovka

Today, 12 July, Sunday

Time Temperature Precipitation Wind Pressure Humidity
00:00 +15°C° 2.1 mm 4 mps 745 mmHg 93%
01:00 +14°C° 2.1 mm 5 mps 745 mmHg 94%
02:00 +14°C° 0 mm 4 mps 745 mmHg 96%
03:00 +14°C° 1.1 mm 4 mps 745 mmHg 96%
04:00 +13°C° 1.1 mm 4 mps 744 mmHg 96%
05:00 +13°C° 1.1 mm 4 mps 744 mmHg 96%
06:00 +13°C° 0.2 mm 4 mps 744 mmHg 95%
07:00 +14°C° 0.2 mm 4 mps 744 mmHg 95%
08:00 +14°C° 0 mm 4 mps 745 mmHg 95%
09:00 +14°C° 0.1 mm 4 mps 745 mmHg 94%
10:00 +14°C° 0.1 mm 4 mps 744 mmHg 94%
11:00 +14°C° 0.1 mm 5 mps 744 mmHg 93%
12:00 +15°C° 0 mm 5 mps 745 mmHg 91%
13:00 +15°C° 0 mm 5 mps 745 mmHg 89%
14:00 +16°C° 0 mm 5 mps 745 mmHg 85%
15:00 +15°C° 0.1 mm 5 mps 745 mmHg 86%
16:00 +14°C° 0.1 mm 6 mps 745 mmHg 88%
17:00 +13°C° 0.1 mm 6 mps 745 mmHg 89%
18:00 +13°C° 0 mm 5 mps 745 mmHg 89%
19:00 +12°C° 0 mm 5 mps 745 mmHg 89%
20:00 +12°C° 0 mm 4 mps 745 mmHg 90%
21:00 +12°C° 0 mm 4 mps 745 mmHg 89%
22:00 +12°C° 0 mm 4 mps 745 mmHg 88%
23:00 +11°C° 0 mm 4 mps 744 mmHg 87%

Tomorrow, 13 July, Monday

Time Temperature Precipitation Wind Pressure Humidity
00:00 +11°C° 0.1 mm 4 mps 745 mmHg 88%
01:00 +11°C° 0.1 mm 4 mps 745 mmHg 89%
02:00 +11°C° 0.1 mm 3 mps 745 mmHg 90%
03:00 +11°C° 0.6 mm 3 mps 744 mmHg 92%
04:00 +11°C° 0.6 mm 3 mps 744 mmHg 93%
05:00 +11°C° 0.6 mm 4 mps 744 mmHg 95%
06:00 +11°C° 0.2 mm 3 mps 744 mmHg 94%
07:00 +11°C° 0.2 mm 3 mps 744 mmHg 93%
08:00 +12°C° 0.2 mm 3 mps 744 mmHg 92%
09:00 +12°C° 0.1 mm 3 mps 744 mmHg 89%
10:00 +13°C° 0.1 mm 3 mps 744 mmHg 87%
11:00 +14°C° 0.1 mm 4 mps 744 mmHg 84%
12:00 +16°C° 0.1 mm 3 mps 744 mmHg 82%
13:00 +16°C° 0.1 mm 3 mps 744 mmHg 80%
14:00 +17°C° 0.1 mm 3 mps 744 mmHg 78%
15:00 +17°C° 0.2 mm 3 mps 743 mmHg 79%
16:00 +17°C° 0.2 mm 3 mps 743 mmHg 80%
17:00 +17°C° 0.2 mm 3 mps 743 mmHg 81%
18:00 +16°C° 0 mm 2 mps 743 mmHg 85%
19:00 +15°C° 0 mm 2 mps 743 mmHg 88%
20:00 +14°C° 0 mm 1 mps 743 mmHg 91%
21:00 +14°C° 0 mm 1 mps 742 mmHg 92%
22:00 +13°C° 0 mm 2 mps 742 mmHg 93%
23:00 +13°C° 0 mm 2 mps 742 mmHg 94%

Day after tomorrow, 14 July, Tuesday

Time Temperature Precipitation Wind Pressure Humidity
00:00 +11°C° 0 mm 3 mps 742 mmHg 94%
01:00 +11°C° 0 mm 3 mps 742 mmHg 94%
02:00 +11°C° 0 mm 4 mps 742 mmHg 95%
03:00 +11°C° 0 mm 4 mps 742 mmHg 93%
04:00 +11°C° 0 mm 4 mps 742 mmHg 91%
05:00 +10°C° 0 mm 5 mps 742 mmHg 89%
06:00 +12°C° 0 mm 5 mps 742 mmHg 86%
07:00 +13°C° 0 mm 5 mps 742 mmHg 83%
08:00 +14°C° 0 mm 5 mps 742 mmHg 80%
09:00 +16°C° 0 mm 6 mps 742 mmHg 76%
10:00 +17°C° 0 mm 6 mps 741 mmHg 72%
11:00 +19°C° 0 mm 6 mps 741 mmHg 68%
12:00 +19°C° 0 mm 6 mps 741 mmHg 67%
13:00 +20°C° 0 mm 6 mps 741 mmHg 67%
14:00 +20°C° 0 mm 6 mps 741 mmHg 66%
15:00 +20°C° 0 mm 6 mps 741 mmHg 69%
16:00 +20°C° 0 mm 5 mps 741 mmHg 71%
17:00 +20°C° 0 mm 5 mps 740 mmHg 74%
18:00 +19°C° 0 mm 5 mps 740 mmHg 75%
19:00 +16°C° 0 mm 5 mps 740 mmHg 76%
20:00 +15°C° 0 mm 5 mps 740 mmHg 77%
21:00 +15°C° 0 mm 5 mps 740 mmHg 77%
22:00 +14°C° 0 mm 5 mps 740 mmHg 76%
23:00 +14°C° 0 mm 5 mps 740 mmHg 75%

15 July, Wednesday

Time Temperature Precipitation Wind Pressure Humidity
00:00 +13°C° 0 mm 5 mps 740 mmHg 75%
01:00 +13°C° 0 mm 5 mps 740 mmHg 75%
02:00 +13°C° 0 mm 5 mps 740 mmHg 75%
03:00 +13°C° 0 mm 5 mps 740 mmHg 77%
04:00 +12°C° 0 mm 5 mps 740 mmHg 78%
05:00 +12°C° 0 mm 5 mps 740 mmHg 79%
06:00 +13°C° 0 mm 5 mps 740 mmHg 79%
07:00 +14°C° 0 mm 5 mps 740 mmHg 79%
08:00 +15°C° 0 mm 6 mps 740 mmHg 78%
09:00 +16°C° 0 mm 6 mps 740 mmHg 75%
10:00 +16°C° 0 mm 6 mps 740 mmHg 71%
11:00 +17°C° 0 mm 7 mps 740 mmHg 67%
12:00 +17°C° 0 mm 6 mps 741 mmHg 66%
13:00 +19°C° 0 mm 6 mps 741 mmHg 66%
14:00 +19°C° 0 mm 5 mps 741 mmHg 65%
15:00 +19°C° 0 mm 5 mps 741 mmHg 68%
16:00 +19°C° 0 mm 4 mps 741 mmHg 71%
17:00 +19°C° 0 mm 4 mps 741 mmHg 74%
18:00 +17°C° 0 mm 3 mps 741 mmHg 77%
19:00 +16°C° 0 mm 3 mps 741 mmHg 80%
20:00 +15°C° 0 mm 2 mps 741 mmHg 82%
21:00 +14°C° 0 mm 2 mps 741 mmHg 83%
22:00 +14°C° 0 mm 2 mps 741 mmHg 83%
23:00 +13°C° 0 mm 2 mps 741 mmHg 84%

16 July, Thursday

Time Temperature Precipitation Wind Pressure Humidity
00:00 +13°C° 0 mm 2 mps 741 mmHg 83%
01:00 +12°C° 0 mm 2 mps 741 mmHg 83%
02:00 +12°C° 0 mm 2 mps 741 mmHg 82%
03:00 +11°C° 0 mm 3 mps 741 mmHg 82%
04:00 +11°C° 0 mm 3 mps 741 mmHg 82%
05:00 +11°C° 0 mm 3 mps 741 mmHg 82%
06:00 +13°C° 0 mm 3 mps 741 mmHg 80%
07:00 +14°C° 0 mm 4 mps 741 mmHg 77%
08:00 +17°C° 0 mm 4 mps 741 mmHg 75%
09:00 +18°C° 0 mm 4 mps 741 mmHg 71%
10:00 +19°C° 0 mm 4 mps 741 mmHg 68%
11:00 +20°C° 0 mm 4 mps 741 mmHg 64%
12:00 +21°C° 0.1 mm 4 mps 741 mmHg 64%
13:00 +21°C° 0.1 mm 4 mps 741 mmHg 64%
14:00 +21°C° 0.1 mm 4 mps 741 mmHg 63%
15:00 +21°C° 0 mm 4 mps 741 mmHg 67%
16:00 +21°C° 0 mm 3 mps 741 mmHg 70%
17:00 +21°C° 0 mm 3 mps 740 mmHg 73%
18:00 +19°C° 0 mm 3 mps 740 mmHg 76%
19:00 +18°C° 0 mm 2 mps 740 mmHg 79%
20:00 +16°C° 0 mm 2 mps 740 mmHg 82%
21:00 +15°C° 0 mm 2 mps 740 mmHg 83%
22:00 +15°C° 0 mm 2 mps 741 mmHg 84%
23:00 +14°C° 0 mm 2 mps 741 mmHg 85%

17 July, Friday

Time Temperature Precipitation Wind Pressure Humidity
00:00 +14°C° 0 mm 2 mps 740 mmHg 86%
01:00 +13°C° 0 mm 2 mps 740 mmHg 87%
02:00 +13°C° 0 mm 1 mps 740 mmHg 88%
03:00 +13°C° 0 mm 1 mps 740 mmHg 89%
04:00 +13°C° 0 mm 1 mps 740 mmHg 89%
05:00 +13°C° 0 mm 1 mps 740 mmHg 90%
06:00 +14°C° 0 mm 1 mps 740 mmHg 85%
07:00 +16°C° 0 mm 1 mps 740 mmHg 81%
08:00 +19°C° 0 mm 1 mps 741 mmHg 77%
09:00 +20°C° 0 mm 1 mps 741 mmHg 73%
10:00 +21°C° 0 mm 1 mps 741 mmHg 69%
11:00 +22°C° 0 mm 1 mps 740 mmHg 65%
12:00 +23°C° 0 mm 1 mps 740 mmHg 62%
13:00 +23°C° 0 mm 1 mps 740 mmHg 60%
14:00 +24°C° 0 mm 1 mps 740 mmHg 57%
15:00 +23°C° 0 mm 1 mps 740 mmHg 60%
16:00 +23°C° 0 mm 1 mps 740 mmHg 62%
17:00 +23°C° 0 mm 1 mps 740 mmHg 64%
18:00 +22°C° 0 mm 1 mps 740 mmHg 70%
19:00 +20°C° 0 mm 1 mps 740 mmHg 75%
20:00 +18°C° 0 mm 2 mps 740 mmHg 80%
21:00 +17°C° 0 mm 2 mps 740 mmHg 82%
22:00 +17°C° 0 mm 2 mps 740 mmHg 83%
23:00 +16°C° 0 mm 2 mps 740 mmHg 85%
Show more